owner,sensor,date,latitude,longitude,vertical_datum,mass_concentration_of_oxygen_in_sea_water,qcFlag 
SCCF RECON,ioos:station:SCCF:53:1,2008-02-01T01:00:00Z,26.6493,-81.8810,2.41,6.96,1111122 
SCCF RECON,ioos:station:SCCF:53:1,2008-02-01T02:00:00Z,26.6493,-81.8810,2.44,6.94,1111122 
SCCF RECON,ioos:station:SCCF:53:1,2008-02-01T03:00:00Z,26.6493,-81.8810,2.46,6.91,1111122 
SCCF RECON,ioos:station:SCCF:53:1,2008-02-01T04:00:00Z,26.6493,-81.8810,2.42,6.48,1111122 
SCCF RECON,ioos:station:SCCF:53:1,2008-02-01T05:00:00Z,26.6493,-81.8810,2.37,6.46,1111122 
SCCF RECON,ioos:station:SCCF:53:1,2008-02-01T06:00:00Z,26.6493,-81.8810,2.32,6.21,1111122 
SCCF RECON,ioos:station:SCCF:53:1,2008-02-01T07:00:00Z,26.6493,-81.8810,2.267,6.05,1111122 
SCCF RECON,ioos:station:SCCF:53:1,2008-02-01T08:00:00Z,26.6493,-81.8810,2.212,6.01,1111122 
SCCF RECON,ioos:station:SCCF:53:1,2008-02-01T09:00:00Z,26.6493,-81.8810,2.16,6.04,1111122 
SCCF RECON,ioos:station:SCCF:53:1,2008-02-01T10:00:00Z,26.6493,-81.8810,2.119,6.02,1111122 
SCCF RECON,ioos:station:SCCF:53:1,2008-02-01T11:00:00Z,26.6493,-81.8810,2.08,5.94,1111122 
SCCF RECON,ioos:station:SCCF:53:1,2008-02-01T12:00:00Z,26.6493,-81.8810,2.07,5.65,1111122 
SCCF RECON,ioos:station:SCCF:53:1,2008-02-01T13:00:00Z,26.6493,-81.8810,2.06,5.67,1111122 
SCCF RECON,ioos:station:SCCF:53:1,2008-02-01T14:00:00Z,26.6493,-81.8810,2.067,5.47,1111122 
SCCF RECON,ioos:station:SCCF:53:1,2008-02-01T15:00:00Z,26.6493,-81.8810,2.102,6.69,1111122 
SCCF RECON,ioos:station:SCCF:53:1,2008-02-01T16:00:00Z,26.6493,-81.8810,2.148,6.77,1111122 
SCCF RECON,ioos:station:SCCF:53:1,2008-02-01T17:00:00Z,26.6493,-81.8810,2.187,6.72,1111122 
SCCF RECON,ioos:station:SCCF:53:1,2008-02-01T18:00:00Z,26.6493,-81.8810,2.22,6.73,1111122 
SCCF RECON,ioos:station:SCCF:53:1,2008-02-01T19:00:00Z,26.6493,-81.8810,2.244,6.75,1111122 
SCCF RECON,ioos:station:SCCF:53:1,2008-02-01T20:00:00Z,26.6493,-81.8810,2.271,6.77,1111122 
SCCF RECON,ioos:station:SCCF:53:1,2008-02-01T21:00:00Z,26.6493,-81.8810,2.279,6.8,1111122 
SCCF RECON,ioos:station:SCCF:53:1,2008-02-01T22:00:00Z,26.6493,-81.8810,2.289,7.1,1111122 
SCCF RECON,ioos:station:SCCF:53:1,2008-02-01T23:00:00Z,26.6493,-81.8810,2.305,7.03,1111122 
SCCF RECON,ioos:station:SCCF:53:1,2008-02-02T00:00:00Z,26.6493,-81.8810,2.338,7.06,1111122 
SCCF RECON,ioos:station:SCCF:53:1,2008-02-02T01:00:00Z,26.6493,-81.8810,2.37,6.89,1111122 
SCCF RECON,ioos:station:SCCF:53:1,2008-02-02T02:00:00Z,26.6493,-81.8810,2.4,7.0,1111122 
SCCF RECON,ioos:station:SCCF:53:1,2008-02-02T03:00:00Z,26.6493,-81.8810,2.41,6.7,1111122 
SCCF RECON,ioos:station:SCCF:53:1,2008-02-02T04:00:00Z,26.6493,-81.8810,2.38,6.38,1111122 
SCCF RECON,ioos:station:SCCF:53:1,2008-02-02T05:00:00Z,26.6493,-81.8810,2.34,6.31,1111122 
SCCF RECON,ioos:station:SCCF:53:1,2008-02-02T06:00:00Z,26.6493,-81.8810,2.29,5.95,1111122 
SCCF RECON,ioos:station:SCCF:53:1,2008-02-02T07:00:00Z,26.6493,-81.8810,2.24,5.97,1111122 
SCCF RECON,ioos:station:SCCF:53:1,2008-02-02T08:00:00Z,26.6493,-81.8810,2.2,6.05,1111122 
SCCF RECON,ioos:station:SCCF:53:1,2008-02-02T09:00:00Z,26.6493,-81.8810,2.15,5.86,1111122 
SCCF RECON,ioos:station:SCCF:53:1,2008-02-02T10:00:00Z,26.6493,-81.8810,2.1,5.75,1111122 
SCCF RECON,ioos:station:SCCF:53:1,2008-02-02T11:00:00Z,26.6493,-81.8810,2.06,5.45,1111122 
SCCF RECON,ioos:station:SCCF:53:1,2008-02-02T12:00:00Z,26.6493,-81.8810,2.02,5.56,1111122 
SCCF RECON,ioos:station:SCCF:53:1,2008-02-02T13:00:00Z,26.6493,-81.8810,1.99,5.76,1111122 
SCCF RECON,ioos:station:SCCF:53:1,2008-02-02T14:00:00Z,26.6493,-81.8810,1.98,5.86,1111122 
SCCF RECON,ioos:station:SCCF:53:1,2008-02-02T15:00:00Z,26.6493,-81.8810,1.98,5.93,1111122 
SCCF RECON,ioos:station:SCCF:53:1,2008-02-02T16:00:00Z,26.6493,-81.8810,2.01,6.05,1111122 
SCCF RECON,ioos:station:SCCF:53:1,2008-02-02T17:00:00Z,26.6493,-81.8810,2.04,6.55,1111122 
SCCF RECON,ioos:station:SCCF:53:1,2008-02-02T18:00:00Z,26.6493,-81.8810,2.067,6.62,1111122 
SCCF RECON,ioos:station:SCCF:53:1,2008-02-02T19:00:00Z,26.6493,-81.8810,2.098,6.77,1111122 
SCCF RECON,ioos:station:SCCF:53:1,2008-02-02T20:00:00Z,26.6493,-81.8810,2.129,6.48,1111122 
SCCF RECON,ioos:station:SCCF:53:1,2008-02-02T21:00:00Z,26.6493,-81.8810,2.147,6.37,1111122 
SCCF RECON,ioos:station:SCCF:53:1,2008-02-02T22:00:00Z,26.6493,-81.8810,2.173,6.38,1111122 
SCCF RECON,ioos:station:SCCF:53:1,2008-02-02T23:00:00Z,26.6493,-81.8810,2.199,6.67,1111122 
SCCF RECON,ioos:station:SCCF:53:1,2008-02-03T00:00:00Z,26.6493,-81.8810,2.23,6.98,1111122 
SCCF RECON,ioos:station:SCCF:53:1,2008-02-03T01:00:00Z,26.6493,-81.8810,2.26,6.81,1111122 
SCCF RECON,ioos:station:SCCF:53:1,2008-02-03T03:00:00Z,26.6493,-81.8810,2.34,6.7,1111122 
SCCF RECON,ioos:station:SCCF:53:1,2008-02-03T04:00:00Z,26.6493,-81.8810,2.36,6.89,1111122 
SCCF RECON,ioos:station:SCCF:53:1,2008-02-03T05:00:00Z,26.6493,-81.8810,2.36,6.59,1111122 
SCCF RECON,ioos:station:SCCF:53:1,2008-02-03T06:00:00Z,26.6493,-81.8810,2.32,5.97,1111122 
SCCF RECON,ioos:station:SCCF:53:1,2008-02-03T07:00:00Z,26.6493,-81.8810,2.27,5.86,1111122 
SCCF RECON,ioos:station:SCCF:53:1,2008-02-03T08:00:00Z,26.6493,-81.8810,2.22,5.84,1111122 
SCCF RECON,ioos:station:SCCF:53:1,2008-02-03T09:00:00Z,26.6493,-81.8810,2.166,5.66,1111122 
SCCF RECON,ioos:station:SCCF:53:1,2008-02-03T10:00:00Z,26.6493,-81.8810,2.111,5.86,1111122 
SCCF RECON,ioos:station:SCCF:53:1,2008-02-03T11:00:00Z,26.6493,-81.8810,2.07,5.59,1111122 
SCCF RECON,ioos:station:SCCF:53:1,2008-02-03T12:00:00Z,26.6493,-81.8810,2.03,5.5,1111122 
SCCF RECON,ioos:station:SCCF:53:1,2008-02-03T13:00:00Z,26.6493,-81.8810,1.986,5.24,1111122 
SCCF RECON,ioos:station:SCCF:53:1,2008-02-03T14:00:00Z,26.6493,-81.8810,1.96,5.08,1111122 
SCCF RECON,ioos:station:SCCF:53:1,2008-02-03T15:00:00Z,26.6493,-81.8810,1.948,5.94,1111122 
SCCF RECON,ioos:station:SCCF:53:1,2008-02-03T17:00:00Z,26.6493,-81.8810,2.0,6.18,1111122 
SCCF RECON,ioos:station:SCCF:53:1,2008-02-03T18:00:00Z,26.6493,-81.8810,2.029,6.44,1111122 
SCCF RECON,ioos:station:SCCF:53:1,2008-02-03T19:00:00Z,26.6493,-81.8810,2.056,6.38,1111122 
SCCF RECON,ioos:station:SCCF:53:1,2008-02-03T20:00:00Z,26.6493,-81.8810,2.09,6.13,1111122 
SCCF RECON,ioos:station:SCCF:53:1,2008-02-03T21:00:00Z,26.6493,-81.8810,2.123,6.44,1111122 
SCCF RECON,ioos:station:SCCF:53:1,2008-02-03T22:00:00Z,26.6493,-81.8810,2.139,6.09,1111122 
SCCF RECON,ioos:station:SCCF:53:1,2008-02-03T23:00:00Z,26.6493,-81.8810,2.153,5.99,1111122 
SCCF RECON,ioos:station:SCCF:53:1,2008-02-04T00:00:00Z,26.6493,-81.8810,2.19,5.67,1111122 
SCCF RECON,ioos:station:SCCF:53:1,2008-02-04T01:00:00Z,26.6493,-81.8810,2.22,6.2,1111122 
SCCF RECON,ioos:station:SCCF:53:1,2008-02-04T02:00:00Z,26.6493,-81.8810,2.256,6.03,1111122 
SCCF RECON,ioos:station:SCCF:53:1,2008-02-04T04:00:00Z,26.6493,-81.8810,2.33,6.72,1111122 
SCCF RECON,ioos:station:SCCF:53:1,2008-02-04T05:00:00Z,26.6493,-81.8810,2.35,6.01,1111122 
SCCF RECON,ioos:station:SCCF:53:1,2008-02-04T06:00:00Z,26.6493,-81.8810,2.35,6.13,1111122 
SCCF RECON,ioos:station:SCCF:53:1,2008-02-04T07:00:00Z,26.6493,-81.8810,2.3,6.3,1111122 
SCCF RECON,ioos:station:SCCF:53:1,2008-02-04T08:00:00Z,26.6493,-81.8810,2.25,5.92,1111122 
SCCF RECON,ioos:station:SCCF:53:1,2008-02-04T09:00:00Z,26.6493,-81.8810,2.2,5.65,1111122 
SCCF RECON,ioos:station:SCCF:53:1,2008-02-04T10:00:00Z,26.6493,-81.8810,2.15,5.78,1111122 
SCCF RECON,ioos:station:SCCF:53:1,2008-02-04T11:00:00Z,26.6493,-81.8810,2.104,5.62,1111122 
SCCF RECON,ioos:station:SCCF:53:1,2008-02-04T12:00:00Z,26.6493,-81.8810,2.06,5.67,1111122 
SCCF RECON,ioos:station:SCCF:53:1,2008-02-04T13:00:00Z,26.6493,-81.8810,2.01,5.52,1111122 
SCCF RECON,ioos:station:SCCF:53:1,2008-02-04T14:00:00Z,26.6493,-81.8810,1.97,5.17,1111122 
SCCF RECON,ioos:station:SCCF:53:1,2008-02-04T15:00:00Z,26.6493,-81.8810,1.95,5.72,1111122 
SCCF RECON,ioos:station:SCCF:53:1,2008-02-04T16:00:00Z,26.6493,-81.8810,1.951,5.84,1111122 
SCCF RECON,ioos:station:SCCF:53:1,2008-02-04T17:00:00Z,26.6493,-81.8810,1.985,6.06,1111122 
SCCF RECON,ioos:station:SCCF:53:1,2008-02-04T18:00:00Z,26.6493,-81.8810,2.013,6.18,1111122 
SCCF RECON,ioos:station:SCCF:53:1,2008-02-04T20:00:00Z,26.6493,-81.8810,2.089,6.17,1111122 
SCCF RECON,ioos:station:SCCF:53:1,2008-02-04T21:00:00Z,26.6493,-81.8810,2.114,6.3,1111122 
SCCF RECON,ioos:station:SCCF:53:1,2008-02-04T23:00:00Z,26.6493,-81.8810,2.169,6.42,1111122 
SCCF RECON,ioos:station:SCCF:53:1,2008-02-05T00:00:00Z,26.6493,-81.8810,2.183,6.42,1111122 
SCCF RECON,ioos:station:SCCF:53:1,2008-02-05T01:00:00Z,26.6493,-81.8810,2.22,6.93,1111122 
SCCF RECON,ioos:station:SCCF:53:1,2008-02-05T02:00:00Z,26.6493,-81.8810,2.26,6.65,1111122 
SCCF RECON,ioos:station:SCCF:53:1,2008-02-05T03:00:00Z,26.6493,-81.8810,2.31,6.71,1111122 
SCCF RECON,ioos:station:SCCF:53:1,2008-02-05T04:00:00Z,26.6493,-81.8810,2.36,6.62,1111122 
SCCF RECON,ioos:station:SCCF:53:1,2008-02-05T05:00:00Z,26.6493,-81.8810,2.402,6.9,1111122 
SCCF RECON,ioos:station:SCCF:53:1,2008-02-05T06:00:00Z,26.6493,-81.8810,2.43,6.92,1111122 
SCCF RECON,ioos:station:SCCF:53:1,2008-02-05T07:00:00Z,26.6493,-81.8810,2.43,6.69,1111122 
SCCF RECON,ioos:station:SCCF:53:1,2008-02-05T08:00:00Z,26.6493,-81.8810,2.37,6.37,1111122 
SCCF RECON,ioos:station:SCCF:53:1,2008-02-05T09:00:00Z,26.6493,-81.8810,2.32,6.04,1111122 
SCCF RECON,ioos:station:SCCF:53:1,2008-02-05T10:00:00Z,26.6493,-81.8810,2.265,5.87,1111122 
SCCF RECON,ioos:station:SCCF:53:1,2008-02-05T11:00:00Z,26.6493,-81.8810,2.21,5.85,1111122 
SCCF RECON,ioos:station:SCCF:53:1,2008-02-05T12:00:00Z,26.6493,-81.8810,2.16,5.8,1111122 
SCCF RECON,ioos:station:SCCF:53:1,2008-02-05T13:00:00Z,26.6493,-81.8810,2.118,5.8,1111122 
SCCF RECON,ioos:station:SCCF:53:1,2008-02-05T14:00:00Z,26.6493,-81.8810,2.07,5.9,1111122 
SCCF RECON,ioos:station:SCCF:53:1,2008-02-05T15:00:00Z,26.6493,-81.8810,2.029,5.65,1111122 
SCCF RECON,ioos:station:SCCF:53:1,2008-02-05T16:00:00Z,26.6493,-81.8810,2.006,5.96,1111122 
SCCF RECON,ioos:station:SCCF:53:1,2008-02-05T17:00:00Z,26.6493,-81.8810,2.009,6.49,1111122 
SCCF RECON,ioos:station:SCCF:53:1,2008-02-05T18:00:00Z,26.6493,-81.8810,2.032,6.75,1111122 
SCCF RECON,ioos:station:SCCF:53:1,2008-02-05T19:00:00Z,26.6493,-81.8810,2.067,6.78,1111122 
SCCF RECON,ioos:station:SCCF:53:1,2008-02-05T20:00:00Z,26.6493,-81.8810,2.101,6.81,1111122 
SCCF RECON,ioos:station:SCCF:53:1,2008-02-05T21:00:00Z,26.6493,-81.8810,2.136,6.72,1111122 
SCCF RECON,ioos:station:SCCF:53:1,2008-02-05T22:00:00Z,26.6493,-81.8810,2.156,6.85,1111122 
SCCF RECON,ioos:station:SCCF:53:1,2008-02-05T23:00:00Z,26.6493,-81.8810,2.163,6.37,1111122 
SCCF RECON,ioos:station:SCCF:53:1,2008-02-06T00:00:00Z,26.6493,-81.8810,2.155,6.37,1111122 
SCCF RECON,ioos:station:SCCF:53:1,2008-02-06T01:00:00Z,26.6493,-81.8810,2.16,6.16,1111122 
SCCF RECON,ioos:station:SCCF:53:1,2008-02-06T02:00:00Z,26.6493,-81.8810,2.189,6.66,1111122 
SCCF RECON,ioos:station:SCCF:53:1,2008-02-06T03:00:00Z,26.6493,-81.8810,2.23,6.8,1111122 
SCCF RECON,ioos:station:SCCF:53:1,2008-02-06T04:00:00Z,26.6493,-81.8810,2.27,6.77,1111122 
SCCF RECON,ioos:station:SCCF:53:1,2008-02-06T05:00:00Z,26.6493,-81.8810,2.33,6.65,1111122 
SCCF RECON,ioos:station:SCCF:53:1,2008-02-06T06:00:00Z,26.6493,-81.8810,2.37,6.52,1111122 
SCCF RECON,ioos:station:SCCF:53:1,2008-02-06T07:00:00Z,26.6493,-81.8810,2.41,6.4,1111122 
SCCF RECON,ioos:station:SCCF:53:1,2008-02-06T08:00:00Z,26.6493,-81.8810,2.42,6.28,1111122 
SCCF RECON,ioos:station:SCCF:53:1,2008-02-06T09:00:00Z,26.6493,-81.8810,2.37,5.74,1111122 
SCCF RECON,ioos:station:SCCF:53:1,2008-02-06T10:00:00Z,26.6493,-81.8810,2.32,5.91,1111122 
SCCF RECON,ioos:station:SCCF:53:1,2008-02-06T11:00:00Z,26.6493,-81.8810,2.27,5.79,1111122 
SCCF RECON,ioos:station:SCCF:53:1,2008-02-06T12:00:00Z,26.6493,-81.8810,2.21,5.78,1111122 
SCCF RECON,ioos:station:SCCF:53:1,2008-02-06T13:00:00Z,26.6493,-81.8810,2.16,5.55,1111122 
SCCF RECON,ioos:station:SCCF:53:1,2008-02-06T14:00:00Z,26.6493,-81.8810,2.11,5.46,1111122 
SCCF RECON,ioos:station:SCCF:53:1,2008-02-06T15:00:00Z,26.6493,-81.8810,2.07,5.88,1111122 
SCCF RECON,ioos:station:SCCF:53:1,2008-02-06T16:00:00Z,26.6493,-81.8810,2.064,5.57,1111122 
SCCF RECON,ioos:station:SCCF:53:1,2008-02-06T17:00:00Z,26.6493,-81.8810,2.1,6.21,1111122 
SCCF RECON,ioos:station:SCCF:53:1,2008-02-06T18:00:00Z,26.6493,-81.8810,2.132,6.57,1111122 
SCCF RECON,ioos:station:SCCF:53:1,2008-02-06T19:00:00Z,26.6493,-81.8810,2.178,6.69,1111122 
SCCF RECON,ioos:station:SCCF:53:1,2008-02-06T20:00:00Z,26.6493,-81.8810,2.235,6.76,1111122 
SCCF RECON,ioos:station:SCCF:53:1,2008-02-06T21:00:00Z,26.6493,-81.8810,2.265,6.79,1111122 
SCCF RECON,ioos:station:SCCF:53:1,2008-02-06T22:00:00Z,26.6493,-81.8810,2.268,6.46,1111122 
SCCF RECON,ioos:station:SCCF:53:1,2008-02-06T23:00:00Z,26.6493,-81.8810,2.227,6.34,1111122 
SCCF RECON,ioos:station:SCCF:53:1,2008-02-07T00:00:00Z,26.6493,-81.8810,2.191,6.5,1111122 
SCCF RECON,ioos:station:SCCF:53:1,2008-02-07T01:00:00Z,26.6493,-81.8810,2.159,5.89,1111122 
SCCF RECON,ioos:station:SCCF:53:1,2008-02-07T02:00:00Z,26.6493,-81.8810,2.137,5.67,1111122 
SCCF RECON,ioos:station:SCCF:53:1,2008-02-07T03:00:00Z,26.6493,-81.8810,2.165,5.44,1111122 
SCCF RECON,ioos:station:SCCF:53:1,2008-02-07T04:00:00Z,26.6493,-81.8810,2.211,6.17,1111122 
SCCF RECON,ioos:station:SCCF:53:1,2008-02-07T05:00:00Z,26.6493,-81.8810,2.258,6.32,1111122 
SCCF RECON,ioos:station:SCCF:53:1,2008-02-07T06:00:00Z,26.6493,-81.8810,2.31,6.19,1111122 
SCCF RECON,ioos:station:SCCF:53:1,2008-02-07T07:00:00Z,26.6493,-81.8810,2.363,6.23,1111122 
SCCF RECON,ioos:station:SCCF:53:1,2008-02-07T08:00:00Z,26.6493,-81.8810,2.394,6.32,1111122 
SCCF RECON,ioos:station:SCCF:53:1,2008-02-07T09:00:00Z,26.6493,-81.8810,2.381,5.83,1111122 
SCCF RECON,ioos:station:SCCF:53:1,2008-02-07T10:00:00Z,26.6493,-81.8810,2.33,5.6,1111122 
SCCF RECON,ioos:station:SCCF:53:1,2008-02-07T11:00:00Z,26.6493,-81.8810,2.28,5.76,1111122 
SCCF RECON,ioos:station:SCCF:53:1,2008-02-07T12:00:00Z,26.6493,-81.8810,2.229,5.5,1111122 
SCCF RECON,ioos:station:SCCF:53:1,2008-02-07T13:00:00Z,26.6493,-81.8810,2.17,5.09,1111122 
SCCF RECON,ioos:station:SCCF:53:1,2008-02-07T14:00:00Z,26.6493,-81.8810,2.12,5.0,1111122 
SCCF RECON,ioos:station:SCCF:53:1,2008-02-07T15:00:00Z,26.6493,-81.8810,2.08,5.02,1111122 
SCCF RECON,ioos:station:SCCF:53:1,2008-02-07T16:00:00Z,26.6493,-81.8810,2.043,5.1,1111122 
SCCF RECON,ioos:station:SCCF:53:1,2008-02-07T17:00:00Z,26.6493,-81.8810,2.033,5.41,1111122 
SCCF RECON,ioos:station:SCCF:53:1,2008-02-07T18:00:00Z,26.6493,-81.8810,2.06,5.96,1111122 
SCCF RECON,ioos:station:SCCF:53:1,2008-02-07T19:00:00Z,26.6493,-81.8810,2.096,6.11,1111122 
SCCF RECON,ioos:station:SCCF:53:1,2008-02-07T20:00:00Z,26.6493,-81.8810,2.139,6.18,1111122 
SCCF RECON,ioos:station:SCCF:53:1,2008-02-07T21:00:00Z,26.6493,-81.8810,2.18,6.16,1111122 
SCCF RECON,ioos:station:SCCF:53:1,2008-02-07T22:00:00Z,26.6493,-81.8810,2.201,6.33,1111122 
SCCF RECON,ioos:station:SCCF:53:1,2008-02-07T23:00:00Z,26.6493,-81.8810,2.18,6.11,1111122 
SCCF RECON,ioos:station:SCCF:53:1,2008-02-08T00:00:00Z,26.6493,-81.8810,2.14,6.14,1111122 
SCCF RECON,ioos:station:SCCF:53:1,2008-02-08T01:00:00Z,26.6493,-81.8810,2.107,5.8,1111122 
SCCF RECON,ioos:station:SCCF:53:1,2008-02-08T02:00:00Z,26.6493,-81.8810,2.071,5.7,1111122 
SCCF RECON,ioos:station:SCCF:53:1,2008-02-08T04:00:00Z,26.6493,-81.8810,2.09,5.5,1111122 
SCCF RECON,ioos:station:SCCF:53:1,2008-02-08T05:00:00Z,26.6493,-81.8810,2.14,5.84,1111122 
SCCF RECON,ioos:station:SCCF:53:1,2008-02-08T06:00:00Z,26.6493,-81.8810,2.19,6.0,1111122 
SCCF RECON,ioos:station:SCCF:53:1,2008-02-08T07:00:00Z,26.6493,-81.8810,2.25,6.17,1111122 
SCCF RECON,ioos:station:SCCF:53:1,2008-02-08T08:00:00Z,26.6493,-81.8810,2.3,6.13,1111122 
SCCF RECON,ioos:station:SCCF:53:1,2008-02-08T09:00:00Z,26.6493,-81.8810,2.33,6.01,1111122 
SCCF RECON,ioos:station:SCCF:53:1,2008-02-08T10:00:00Z,26.6493,-81.8810,2.308,5.3,1111122 
SCCF RECON,ioos:station:SCCF:53:1,2008-02-08T11:00:00Z,26.6493,-81.8810,2.259,5.46,1111122 
SCCF RECON,ioos:station:SCCF:53:1,2008-02-08T12:00:00Z,26.6493,-81.8810,2.211,5.14,1111122 
SCCF RECON,ioos:station:SCCF:53:1,2008-02-08T13:00:00Z,26.6493,-81.8810,2.16,5.13,1111122 
SCCF RECON,ioos:station:SCCF:53:1,2008-02-08T14:00:00Z,26.6493,-81.8810,2.11,4.94,1111122 
SCCF RECON,ioos:station:SCCF:53:1,2008-02-08T15:00:00Z,26.6493,-81.8810,2.07,4.83,1111122 
SCCF RECON,ioos:station:SCCF:53:1,2008-02-08T16:00:00Z,26.6493,-81.8810,2.021,4.72,1111122 
SCCF RECON,ioos:station:SCCF:53:1,2008-02-08T17:00:00Z,26.6493,-81.8810,1.991,4.78,1111122 
SCCF RECON,ioos:station:SCCF:53:1,2008-02-08T18:00:00Z,26.6493,-81.8810,2.022,5.5,1111122 
SCCF RECON,ioos:station:SCCF:53:1,2008-02-08T19:00:00Z,26.6493,-81.8810,2.061,5.68,1111122 
SCCF RECON,ioos:station:SCCF:53:1,2008-02-08T20:00:00Z,26.6493,-81.8810,2.094,5.46,1111122 
SCCF RECON,ioos:station:SCCF:53:1,2008-02-08T21:00:00Z,26.6493,-81.8810,2.148,5.42,1111122 
SCCF RECON,ioos:station:SCCF:53:1,2008-02-08T22:00:00Z,26.6493,-81.8810,2.18,5.6,1111122 
SCCF RECON,ioos:station:SCCF:53:1,2008-02-08T23:00:00Z,26.6493,-81.8810,2.17,5.67,1111122 
SCCF RECON,ioos:station:SCCF:53:1,2008-02-09T00:00:00Z,26.6493,-81.8810,2.135,5.15,1111122 
SCCF RECON,ioos:station:SCCF:53:1,2008-02-09T01:00:00Z,26.6493,-81.8810,2.1,5.33,1111122 
SCCF RECON,ioos:station:SCCF:53:1,2008-02-09T02:00:00Z,26.6493,-81.8810,2.06,5.24,1111122 
SCCF RECON,ioos:station:SCCF:53:1,2008-02-09T03:00:00Z,26.6493,-81.8810,2.02,4.92,1111122 
SCCF RECON,ioos:station:SCCF:53:1,2008-02-09T04:00:00Z,26.6493,-81.8810,2.01,4.83,1111122 
SCCF RECON,ioos:station:SCCF:53:1,2008-02-09T05:00:00Z,26.6493,-81.8810,2.05,5.27,1111122 
SCCF RECON,ioos:station:SCCF:53:1,2008-02-09T06:00:00Z,26.6493,-81.8810,2.11,5.43,1111122 
SCCF RECON,ioos:station:SCCF:53:1,2008-02-09T07:00:00Z,26.6493,-81.8810,2.16,5.58,1111122 
SCCF RECON,ioos:station:SCCF:53:1,2008-02-09T08:00:00Z,26.6493,-81.8810,2.21,5.46,1111122 
SCCF RECON,ioos:station:SCCF:53:1,2008-02-09T09:00:00Z,26.6493,-81.8810,2.27,5.31,1111122 
SCCF RECON,ioos:station:SCCF:53:1,2008-02-09T10:00:00Z,26.6493,-81.8810,2.29,5.32,1111122 
SCCF RECON,ioos:station:SCCF:53:1,2008-02-09T11:00:00Z,26.6493,-81.8810,2.26,4.87,1111122 
SCCF RECON,ioos:station:SCCF:53:1,2008-02-09T12:00:00Z,26.6493,-81.8810,2.21,4.93,1111122 
SCCF RECON,ioos:station:SCCF:53:1,2008-02-09T13:00:00Z,26.6493,-81.8810,2.17,4.84,1111122 
SCCF RECON,ioos:station:SCCF:53:1,2008-02-09T14:00:00Z,26.6493,-81.8810,2.12,4.99,1111122 
SCCF RECON,ioos:station:SCCF:53:1,2008-02-09T15:00:00Z,26.6493,-81.8810,2.07,4.58,1111122 
SCCF RECON,ioos:station:SCCF:53:1,2008-02-09T16:00:00Z,26.6493,-81.8810,2.021,4.43,1111122 
SCCF RECON,ioos:station:SCCF:53:1,2008-02-09T17:00:00Z,26.6493,-81.8810,1.976,4.44,1111122 
SCCF RECON,ioos:station:SCCF:53:1,2008-02-09T18:00:00Z,26.6493,-81.8810,1.96,4.94,1111122 
SCCF RECON,ioos:station:SCCF:53:1,2008-02-09T19:00:00Z,26.6493,-81.8810,2.0,5.46,1111122 
SCCF RECON,ioos:station:SCCF:53:1,2008-02-09T20:00:00Z,26.6493,-81.8810,2.043,5.57,1111122 
SCCF RECON,ioos:station:SCCF:53:1,2008-02-09T21:00:00Z,26.6493,-81.8810,2.082,5.57,1111122 
SCCF RECON,ioos:station:SCCF:53:1,2008-02-09T22:00:00Z,26.6493,-81.8810,2.125,5.66,1111122 
SCCF RECON,ioos:station:SCCF:53:1,2008-02-09T23:00:00Z,26.6493,-81.8810,2.13,5.63,1111122 
SCCF RECON,ioos:station:SCCF:53:1,2008-02-10T00:00:00Z,26.6493,-81.8810,2.096,5.51,1111122 
SCCF RECON,ioos:station:SCCF:53:1,2008-02-10T01:00:00Z,26.6493,-81.8810,2.06,5.31,1111122 
SCCF RECON,ioos:station:SCCF:53:1,2008-02-10T02:00:00Z,26.6493,-81.8810,2.03,5.14,1111122 
SCCF RECON,ioos:station:SCCF:53:1,2008-02-10T03:00:00Z,26.6493,-81.8810,1.99,4.89,1111122 
SCCF RECON,ioos:station:SCCF:53:1,2008-02-10T04:00:00Z,26.6493,-81.8810,1.96,4.85,1111122 
SCCF RECON,ioos:station:SCCF:53:1,2008-02-10T05:00:00Z,26.6493,-81.8810,1.934,4.79,1111122 
SCCF RECON,ioos:station:SCCF:53:1,2008-02-10T06:00:00Z,26.6493,-81.8810,1.963,5.33,1111122 
SCCF RECON,ioos:station:SCCF:53:1,2008-02-10T07:00:00Z,26.6493,-81.8810,2.0,5.36,1111122 
SCCF RECON,ioos:station:SCCF:53:1,2008-02-10T08:00:00Z,26.6493,-81.8810,2.04,5.33,1111122 
SCCF RECON,ioos:station:SCCF:53:1,2008-02-10T09:00:00Z,26.6493,-81.8810,2.081,5.53,1111122 
SCCF RECON,ioos:station:SCCF:53:1,2008-02-10T10:00:00Z,26.6493,-81.8810,2.12,5.45,1111122 
SCCF RECON,ioos:station:SCCF:53:1,2008-02-10T11:00:00Z,26.6493,-81.8810,2.135,5.44,1111122 
SCCF RECON,ioos:station:SCCF:53:1,2008-02-10T12:00:00Z,26.6493,-81.8810,2.11,4.98,1111122 
SCCF RECON,ioos:station:SCCF:53:1,2008-02-10T13:00:00Z,26.6493,-81.8810,2.075,4.9,1111122 
SCCF RECON,ioos:station:SCCF:53:1,2008-02-10T14:00:00Z,26.6493,-81.8810,2.042,4.94,1111122 
SCCF RECON,ioos:station:SCCF:53:1,2008-02-10T15:00:00Z,26.6493,-81.8810,1.996,4.88,1111122 
SCCF RECON,ioos:station:SCCF:53:1,2008-02-10T16:00:00Z,26.6493,-81.8810,1.953,4.95,1111122 
SCCF RECON,ioos:station:SCCF:53:1,2008-02-10T17:00:00Z,26.6493,-81.8810,1.907,5.09,1111122 
SCCF RECON,ioos:station:SCCF:53:1,2008-02-10T18:00:00Z,26.6493,-81.8810,1.861,5.12,1111122 
SCCF RECON,ioos:station:SCCF:53:1,2008-02-10T19:00:00Z,26.6493,-81.8810,1.859,6.04,1111122 
SCCF RECON,ioos:station:SCCF:53:1,2008-02-10T20:00:00Z,26.6493,-81.8810,1.898,6.22,1111122 
SCCF RECON,ioos:station:SCCF:53:1,2008-02-10T21:00:00Z,26.6493,-81.8810,1.938,6.38,1111122 
SCCF RECON,ioos:station:SCCF:53:1,2008-02-10T22:00:00Z,26.6493,-81.8810,1.973,6.64,1111122 
SCCF RECON,ioos:station:SCCF:53:1,2008-02-10T23:00:00Z,26.6493,-81.8810,2.007,6.75,1111122 
SCCF RECON,ioos:station:SCCF:53:1,2008-02-11T00:00:00Z,26.6493,-81.8810,2.008,6.73,1111122 
SCCF RECON,ioos:station:SCCF:53:1,2008-02-11T01:00:00Z,26.6493,-81.8810,1.99,6.1,1111122 
SCCF RECON,ioos:station:SCCF:53:1,2008-02-11T02:00:00Z,26.6493,-81.8810,1.955,6.02,1111122 
SCCF RECON,ioos:station:SCCF:53:1,2008-02-11T03:00:00Z,26.6493,-81.8810,1.925,5.82,1111122 
SCCF RECON,ioos:station:SCCF:53:1,2008-02-11T04:00:00Z,26.6493,-81.8810,1.89,5.58,1111122 
SCCF RECON,ioos:station:SCCF:53:1,2008-02-11T05:00:00Z,26.6493,-81.8810,1.843,5.5,1111122 
SCCF RECON,ioos:station:SCCF:53:1,2008-02-11T06:00:00Z,26.6493,-81.8810,1.817,5.43,1111122 
SCCF RECON,ioos:station:SCCF:53:1,2008-02-11T07:00:00Z,26.6493,-81.8810,1.811,5.31,1111122 
SCCF RECON,ioos:station:SCCF:53:1,2008-02-11T08:00:00Z,26.6493,-81.8810,1.839,6.1,1111122 
SCCF RECON,ioos:station:SCCF:53:1,2008-02-11T09:00:00Z,26.6493,-81.8810,1.859,6.21,1111122 
SCCF RECON,ioos:station:SCCF:53:1,2008-02-11T10:00:00Z,26.6493,-81.8810,1.881,6.2,1111122 
SCCF RECON,ioos:station:SCCF:53:1,2008-02-11T11:00:00Z,26.6493,-81.8810,1.91,6.13,1111122 
SCCF RECON,ioos:station:SCCF:53:1,2008-02-11T12:00:00Z,26.6493,-81.8810,1.91,6.07,1111122 
SCCF RECON,ioos:station:SCCF:53:1,2008-02-11T13:00:00Z,26.6493,-81.8810,1.88,5.62,1111122 
SCCF RECON,ioos:station:SCCF:53:1,2008-02-11T14:00:00Z,26.6493,-81.8810,1.856,5.82,1111122 
SCCF RECON,ioos:station:SCCF:53:1,2008-02-11T15:00:00Z,26.6493,-81.8810,1.829,5.96,1111122 
SCCF RECON,ioos:station:SCCF:53:1,2008-02-11T16:00:00Z,26.6493,-81.8810,1.79,5.73,1111122 
SCCF RECON,ioos:station:SCCF:53:1,2008-02-11T17:00:00Z,26.6493,-81.8810,1.75,5.78,1111122 
SCCF RECON,ioos:station:SCCF:53:1,2008-02-11T18:00:00Z,26.6493,-81.8810,1.73,5.75,1111122 
SCCF RECON,ioos:station:SCCF:53:1,2008-02-11T19:00:00Z,26.6493,-81.8810,1.771,6.78,1111122 
SCCF RECON,ioos:station:SCCF:53:1,2008-02-11T20:00:00Z,26.6493,-81.8810,1.795,6.98,1111122 
SCCF RECON,ioos:station:SCCF:53:1,2008-02-11T21:00:00Z,26.6493,-81.8810,1.837,7.49,1111122 
SCCF RECON,ioos:station:SCCF:53:1,2008-02-11T22:00:00Z,26.6493,-81.8810,1.89,7.43,1111122 
SCCF RECON,ioos:station:SCCF:53:1,2008-02-11T23:00:00Z,26.6493,-81.8810,1.946,7.18,1111122 
SCCF RECON,ioos:station:SCCF:53:1,2008-02-12T00:00:00Z,26.6493,-81.8810,1.995,6.81,1111122 
SCCF RECON,ioos:station:SCCF:53:1,2008-02-12T01:00:00Z,26.6493,-81.8810,2.022,6.53,1111122 
SCCF RECON,ioos:station:SCCF:53:1,2008-02-12T02:00:00Z,26.6493,-81.8810,2.0,6.42,1111122 
SCCF RECON,ioos:station:SCCF:53:1,2008-02-12T03:00:00Z,26.6493,-81.8810,1.97,6.12,1111122 